Index of /dists

[ICO]NameLast modifiedSizeDescription

[PARENTDIR]Parent Directory  -  
[DIR]jammy-proposed/2022-12-01 12:00 -  
[DIR]jammy-backports/2022-12-01 11:59 -  
[DIR]focal-updates/2022-12-01 11:45 -  
[DIR]focal-security/2022-12-01 11:43 -  
[DIR]focal-proposed/2022-12-01 11:42 -  
[DIR]focal-backports/2022-12-01 11:41 -  
[DIR]bionic-updates/2022-12-01 11:31 -  
[DIR]bionic-security/2022-12-01 11:29 -  
[DIR]bionic-proposed/2022-12-01 11:27 -  
[DIR]bionic-backports/2022-12-01 11:27 -  
[DIR]kinetic-proposed/2022-12-01 09:28 -  
[DIR]kinetic-updates/2022-12-01 09:27 -  
[DIR]lunar-proposed/2022-12-01 09:27 -  
[DIR]devel-proposed/2022-12-01 09:27 -  
[DIR]lunar/2022-12-01 09:27 -  
[DIR]devel/2022-12-01 09:27 -  
[DIR]jammy-updates/2022-12-01 08:38 -  
[DIR]jammy-security/2022-12-01 08:37 -  
[DIR]kinetic-backports/2022-12-01 08:37 -  
[DIR]kinetic-security/2022-12-01 08:37 -  
[DIR]xenial-backports/2022-12-01 06:08 -  
[DIR]xenial-updates/2022-12-01 06:08 -  
[DIR]xenial-security/2022-12-01 06:07 -  
[DIR]lunar-updates/2022-11-29 22:45 -  
[DIR]devel-updates/2022-11-29 22:45 -  
[DIR]lunar-security/2022-11-29 22:45 -  
[DIR]devel-security/2022-11-29 22:45 -  
[DIR]lunar-backports/2022-11-29 20:39 -  
[DIR]devel-backports/2022-11-29 20:39 -  
[DIR]xenial-proposed/2022-11-25 14:13 -  
[DIR]kinetic/2022-10-20 19:48 -  
[DIR]jammy/2022-04-21 17:16 -  
[DIR]trusty-proposed/2020-06-06 06:57 -  
[DIR]trusty-updates/2020-05-29 08:08 -  
[DIR]trusty-security/2020-05-29 08:06 -  
[DIR]focal/2020-04-23 17:34 -  
[DIR]bionic/2018-04-26 23:38 -  
[DIR]trusty-backports/2017-12-15 09:49 -  
[DIR]xenial/2016-04-21 07:43 -  
[DIR]trusty/2015-10-07 11:44 -  

Apache/2.4.41 (Ubuntu) Server at ubuntu.grad.hr Port 443